| time (UTC) | temp F | wind direction | speed MPH | gust MPH | rain 1hr in | rain 24hr in | rain mn in | humidity % | barometer mb |
| 20260503034521 | 41 | 266 | 3.0 | 4.0 | 0.00 | 0.00 | 0.00 | 71 | 1017.1 |
| 20260503033522 | 41 | 247 | 2.0 | 3.0 | 0.00 | 0.00 | 0.00 | 70 | 1017.3 |
| 20260503032522 | 41 | 245 | 3.0 | 4.0 | 0.00 | 0.00 | 0.00 | 67 | 1017.2 |
| 20260503031619 | 41 | 267 | 0.0 | 3.0 | 0.00 | 0.00 | 0.00 | 65 | 1017.3 |
| 20260503030719 | 42 | 247 | 1.0 | 2.0 | 0.00 | 0.00 | 0.00 | 65 | 1017.2 |
| 20260503024720 | 42 | 247 | 2.0 | 3.0 | 0.00 | 0.00 | 0.00 | 64 | 1017.5 |
| 20260503023722 | 42 | 247 | 2.0 | 3.0 | 0.00 | 0.01 | 0.00 | 61 | 1017.5 |
| 20260503022722 | 42 | 270 | 2.0 | 3.0 | 0.00 | 0.01 | 0.00 | 63 | 1017.5 |
| 20260503021721 | 42 | 270 | 0.0 | 1.0 | 0.00 | 0.01 | 0.00 | 62 | 1017.8 |
| 20260503014819 | 42 | 270 | 5.0 | 6.0 | 0.00 | 0.01 | 0.00 | 61 | 1017.6 |
| 20260503013821 | 43 | 265 | 4.0 | 5.0 | 0.00 | 0.01 | 0.00 | 61 | 1017.6 |
| 20260503012820 | 43 | 270 | 6.0 | 7.0 | 0.00 | 0.01 | 0.00 | 61 | 1017.5 |
| 20260503012721 | 43 | 270 | 5.0 | 7.0 | 0.00 | 0.01 | 0.00 | 61 | 1017.7 |
| 20260503011721 | 43 | 270 | 3.0 | 5.0 | 0.00 | 0.01 | 0.00 | 61 | 1017.6 |
| 20260503010819 | 43 | 270 | 4.0 | 5.0 | 0.00 | 0.01 | 0.00 | 61 | 1017.5 |
| 20260503005821 | 43 | 255 | 3.0 | 4.0 | 0.00 | 0.01 | 0.00 | 59 | 1017.5 |
| 20260503004821 | 43 | 262 | 5.0 | 6.0 | 0.00 | 0.01 | 0.00 | 58 | 1017.4 |
| 20260503003820 | 43 | 254 | 4.0 | 7.0 | 0.00 | 0.01 | 0.00 | 59 | 1017.4 |
| 20260503002820 | 43 | 270 | 5.0 | 6.0 | 0.00 | 0.01 | 0.00 | 60 | 1017.3 |
| 20260503001820 | 43 | 270 | 4.0 | 6.0 | 0.00 | 0.01 | 0.00 | 59 | 1017.2 |
| 20260502234818 | 44 | 273 | 5.0 | 6.0 | 0.00 | 0.01 | 0.00 | 61 | 1017.1 |
| 20260502234721 | 44 | 270 | 5.0 | 8.0 | 0.00 | 0.01 | 0.00 | 60 | 1017.1 |
| 20260502233819 | 44 | 270 | 5.0 | 7.0 | 0.00 | 0.01 | 0.00 | 63 | 1017.0 |
| 20260502232821 | 44 | 270 | 4.0 | 5.0 | 0.00 | 0.01 | 0.00 | 61 | 1017.1 |
| 20260502230819 | 44 | 270 | 3.0 | 4.0 | 0.00 | 0.01 | 0.00 | 59 | 1017.1 |
| 20260502224919 | 44 | 281 | 6.0 | 8.0 | 0.00 | 0.01 | 0.00 | 59 | 1017.0 |
| 20260502222919 | 44 | 270 | 4.0 | 6.0 | 0.00 | 0.01 | 0.00 | 61 | 1017.0 |
| 20260502221922 | 44 | 270 | 5.0 | 7.0 | 0.00 | 0.01 | 0.00 | 60 | 1017.1 |
| 20260502221019 | 45 | 258 | 4.0 | 6.0 | 0.00 | 0.01 | 0.00 | 58 | 1017.1 |
| 20260502220023 | 45 | 287 | 4.0 | 6.0 | 0.00 | 0.01 | 0.00 | 59 | 1017.2 |
| 20260502215019 | 45 | 274 | 7.0 | 9.0 | 0.00 | 0.01 | 0.00 | 58 | 1017.1 |
| 20260502214020 | 45 | 270 | 5.0 | 6.0 | 0.00 | 0.01 | 0.00 | 60 | 1017.1 |
| 20260502213920 | 45 | 270 | 5.0 | 7.0 | 0.00 | 0.01 | 0.00 | 59 | 1017.1 |
| 20260502212921 | 46 | 296 | 1.0 | 2.0 | 0.00 | 0.01 | 0.00 | 60 | 1017.2 |
| 20260502212019 | 46 | 294 | 4.0 | 6.0 | 0.00 | 0.01 | 0.00 | 58 | 1017.0 |
| 20260502210921 | 46 | 314 | 4.0 | 7.0 | 0.00 | 0.01 | 0.00 | 58 | 1017.1 |
| 20260502205920 | 47 | 290 | 4.0 | 6.0 | 0.00 | 0.01 | 0.00 | 57 | 1017.0 |
| 20260502204920 | 47 | 283 | 3.0 | 4.0 | 0.00 | 0.01 | 0.00 | 59 | 1017.0 |
| 20260502202921 | 47 | 298 | 4.0 | 6.0 | 0.00 | 0.01 | 0.00 | 56 | 1017.1 |
| 20260502202018 | 47 | 306 | 4.0 | 8.0 | 0.00 | 0.01 | 0.00 | 57 | 1017.0 |
| 20260502201021 | 46 | 333 | 3.0 | 5.0 | 0.00 | 0.01 | 0.00 | 59 | 1017.1 |
| 20260502200119 | 46 | 312 | 2.0 | 6.0 | 0.00 | 0.01 | 0.00 | 61 | 1017.2 |
| 20260502195120 | 45 | 290 | 3.0 | 4.0 | 0.00 | 0.01 | 0.00 | 60 | 1017.2 |
| 20260502194122 | 46 | 299 | 6.0 | 13.0 | 0.00 | 0.01 | 0.00 | 60 | 1017.3 |
| 20260502191219 | 46 | 309 | 4.0 | 9.0 | 0.00 | 0.01 | 0.00 | 64 | 1017.6 |
| 20260502190221 | 46 | 312 | 4.0 | 9.0 | 0.00 | 0.01 | 0.00 | 64 | 1017.7 |
| 20260502185220 | 46 | 301 | 3.0 | 5.0 | 0.00 | 0.01 | 0.00 | 65 | 1017.7 |
| 20260502183222 | 46 | 289 | 5.0 | 9.0 | 0.00 | 0.01 | 0.00 | 66 | 1017.6 |
| 20260502182220 | 46 | 304 | 5.0 | 9.0 | 0.00 | 0.01 | 0.00 | 68 | 1017.6 |
| 20260502181221 | 46 | 300 | 5.0 | 8.0 | 0.00 | 0.01 | 0.00 | 66 | 1017.6 |
| 20260502180220 | 46 | 281 | 7.0 | 11.0 | 0.00 | 0.01 | 0.00 | 66 | 1017.5 |
| 20260502170419 | 45 | 274 | 10.0 | 15.0 | 0.00 | 0.02 | 0.00 | 69 | 1017.4 |
| 20260502160519 | 45 | 294 | 6.0 | 8.0 | 0.00 | 0.02 | 0.00 | 66 | 1017.8 |
| 20260502151519 | 44 | 297 | 6.0 | 9.0 | 0.00 | 0.02 | 0.00 | 60 | 1017.6 |
| 20260502150520 | 44 | 268 | 9.0 | 12.0 | 0.00 | 0.02 | 0.00 | 57 | 1017.6 |
| 20260502130719 | 41 | 272 | 7.0 | 13.0 | 0.00 | 0.02 | 0.00 | 74 | 1018.0 |
| 20260502123720 | 40 | 272 | 5.0 | 8.0 | 0.00 | 0.02 | 0.00 | 78 | 1017.8 |
| 20260502122720 | 40 | 270 | 7.0 | 11.0 | 0.00 | 0.02 | 0.00 | 79 | 1017.8 |
| 20260502121719 | 39 | 278 | 7.0 | 11.0 | 0.00 | 0.02 | 0.00 | 81 | 1017.8 |
| 20260502120718 | 39 | 284 | 8.0 | 11.0 | 0.00 | 0.02 | 0.00 | 83 | 1017.8 |
| 20260502115719 | 39 | 274 | 6.0 | 10.0 | 0.00 | 0.02 | 0.00 | 84 | 1017.8 |
| 20260502113720 | 37 | 277 | 5.0 | 8.0 | 0.00 | 0.02 | 0.00 | 87 | 1017.8 |
| 20260502112721 | 37 | 261 | 4.0 | 8.0 | 0.00 | 0.02 | 0.00 | 88 | 1017.9 |
| 20260502111734 | 37 | 267 | 3.0 | 7.0 | 0.00 | 0.02 | 0.00 | 89 | 1017.6 |
| 20260502105718 | 36 | 215 | 5.0 | 8.0 | 0.00 | 0.02 | 0.00 | 89 | 1017.4 |
| 20260502104719 | 36 | 259 | 4.0 | 7.0 | 0.00 | 0.02 | 0.00 | 90 | 1017.0 |
| 20260502103720 | 36 | 241 | 3.0 | 6.0 | 0.00 | 0.02 | 0.00 | 90 | 1017.0 |
| 20260502102719 | 36 | 259 | 5.0 | 10.0 | 0.00 | 0.02 | 0.00 | 90 | 1016.8 |
| 20260502102620 | 36 | 270 | 2.0 | 4.0 | 0.00 | 0.02 | 0.00 | 90 | 1016.8 |
| 20260502100619 | 35 | 246 | 2.0 | 4.0 | 0.00 | 0.02 | 0.00 | 91 | 1016.8 |
| 20260502090720 | 35 | 247 | 0.0 | 0.0 | 0.00 | 0.02 | 0.00 | 88 | 1016.4 |
| 20260502070919 | 37 | 270 | 3.0 | 4.0 | 0.00 | 0.02 | 0.00 | 85 | 1016.1 |
| 20260502065921 | 37 | 270 | 2.0 | 4.0 | 0.00 | 0.02 | 0.00 | 82 | 1016.2 |
| 20260502064919 | 38 | 270 | 2.0 | 4.0 | 0.00 | 0.02 | 0.00 | 83 | 1016.0 |
| 20260502064818 | 38 | 270 | 2.0 | 4.0 | 0.00 | 0.02 | 0.00 | 83 | 1016.0 |
| 20260502063819 | 39 | 270 | 3.0 | 5.0 | 0.00 | 0.02 | 0.00 | 81 | 1016.4 |
| 20260502062818 | 39 | 284 | 3.0 | 6.0 | 0.00 | 0.02 | 0.00 | 80 | 1016.4 |
| 20260502061819 | 39 | 276 | 4.0 | 6.0 | 0.00 | 0.02 | 0.00 | 80 | 1016.5 |
| 20260502060919 | 39 | 283 | 1.0 | 3.0 | 0.00 | 0.02 | 0.00 | 79 | 1016.4 |
| 20260502055920 | 39 | 326 | 2.0 | 7.0 | 0.00 | 0.02 | 0.00 | 79 | 1016.3 |
| 20260502054020 | 40 | 283 | 3.0 | 5.0 | 0.00 | 0.02 | 0.00 | 80 | 1016.4 |
| 20260502052021 | 40 | 292 | 2.0 | 3.0 | 0.00 | 0.02 | 0.00 | 85 | 1016.4 |
| 20260502050019 | 42 | 357 | 1.0 | 4.0 | 0.00 | 0.02 | 0.00 | 94 | 1016.1 |
| 20260502045033 | 41 | 269 | 0.0 | 1.0 | 0.00 | 0.02 | 0.00 | 94 | 1015.7 |
| 20260502044117 | 41 | 270 | 0.0 | 0.0 | 0.00 | 0.02 | 0.00 | 94 | 1015.7 |
| 20260502042118 | 41 | 270 | 0.0 | 0.0 | 0.00 | 0.02 | 0.00 | 93 | 1015.8 |
| 20260502041217 | 41 | 270 | 0.0 | 0.0 | 0.00 | 0.02 | 0.00 | 94 | 1015.7 |
| 20260502040219 | 41 | 270 | 0.0 | 0.0 | 0.00 | 0.02 | 0.00 | 94 | 1015.8 |
| 20260502035225 | 41 | 270 | 0.0 | 0.0 | 0.00 | 0.02 | 0.02 | 93 | 1015.7 |